Location: Unspecified
(30.1128°N, 0.0000°E)
Time: 04:35:49
(UTC+00:00)

Hubble Space Telescope - Visible Passes

Search period start: 04 April 2026 00:00
Search period end: 14 April 2026 00:00
Orbit: 475 x 478 km, 28.5° (Epoch: 28 March)

Date Brightness Start Highest point End Pass type
(mag) Time Alt. Az. Time Alt. Az. Time Alt. Az.
4 Apr 2.8 04:45:07 10° SSW 04:47:28 16° SSE 04:49:50 10° ESE visible
5 Apr 2.7 04:15:40 15° S 04:16:28 16° SSE 04:18:49 10° ESE visible
6 Apr 3.0 03:46:25 15° SE 03:46:25 15° SE 03:47:48 10° ESE visible
7 Apr 1.2 04:51:09 16° SW 04:53:48 44° SSE 04:57:22 10° E visible
8 Apr 1.1 04:21:47 35° SSW 04:22:44 44° SSE 04:26:19 10° E visible
9 Apr 1.5 03:52:23 38° SE 03:52:23 38° SE 03:55:15 10° E visible
10 Apr 3.0 03:22:57 19° ESE 03:22:57 19° ESE 03:24:10 10° E visible
10 Apr 0.6 04:56:59 13° W 05:00:11 69° S 05:03:56 10° E visible
11 Apr 0.5 04:27:32 32° WSW 04:29:05 69° S 04:32:48 10° E visible
12 Apr 0.5 03:58:06 68° SSE 03:58:06 68° SSE 04:01:41 10° E visible
13 Apr 2.4 03:28:41 27° ESE 03:28:41 27° ESE 03:30:33 10° E visible
13 Apr 0.9 05:02:49 10° W 05:06:27 48° SSW 05:10:04 10° ESE visible
